Content
SEND FEEDBACK

Daily
Averages
Monthly
Summary
United States of America

REDDING, CALIFORNIA


Home > North America > United States > California
Elevation: 535 feet     Latitude: 40 31N     Longitude: 122 18W

WEATHER
 
SELECT A DAY
Number of Records: 187,239;   Date Range: 1/1/95 - 8/12/14
 
SHARE

PRINT THIS DATA

[ ← Previous Day ]
WEATHER ALMANAC - OCTOBER 22, 2013
[ Next Day → ]
[ °C ]   °F
Weather ElementAverageHighLow
Temperature63.2 °F84.9 °F (3:53 pm)46 °F (7:53 am)
Dewpoint37 °F41 °F (9:53 am)30.9 °F (3:53 pm)
Humidity43.8 %74 % (5:53 am)14 % (3:53 pm)
Barometer29.96 in30.03 in (8:53 am)29.89 in (5:53 pm)
Wind Speed0.8 mph4.6 mph (2:53 pm)
Weather ElementAverage
Visibility10 mi
Wind DirectionNNE (28.7 °)

Weather ElementTotal
Precipitation---
Cooling Degree Days0.5 (Base 65)
Growing Degree Days15.5 (Base 50)
Averaged from 23 records on October 22, 2013
WEATHER CONDITIONS BREAKOUT
WIND DIRECTION BREAKOUT
WEATHER BY HOUR - OCTOBER 22, 2013
[ °C ]   °F
Local TimeTemperatureDewpointHumidityBarometerVisibilityWind DirectionWind SpeedGust SpeedPrecipitationEventsConditions
1:53 AM52.0 °F39.9 °F63 %29.98 in10.0 miCalmClear
2:53 AM52.0 °F39.9 °F63 %29.98 in10.0 miCalmClear
3:53 AM50.0 °F39.9 °F68 %29.98 in10.0 miCalmClear
4:53 AM48.9 °F39.0 °F69 %29.99 in10.0 miCalmClear
5:53 AM46.9 °F39.0 °F74 %30.00 in10.0 miCalmClear
6:53 AM46.9 °F37.0 °F68 %30.01 in10.0 miCalmClear
7:53 AM46.0 °F37.9 °F73 %30.01 in10.0 miCalmClear
8:53 AM52.0 °F39.9 °F63 %30.03 in10.0 miCalmClear
9:53 AM62.1 °F41.0 °F46 %30.01 in10.0 miCalmClear
10:53 AM69.1 °F41.0 °F36 %30.00 in10.0 miSouth (190°)3.5 mphClear
11:53 AM75.9 °F37.0 °F24 %29.98 in10.0 miCalmClear
12:53 PM80.1 °F36.0 °F20 %29.96 in10.0 miCalmClear
1:53 PM82.0 °F35.1 °F18 %29.93 in10.0 miCalmClear
2:53 PM84.0 °F32.0 °F15 %29.91 in10.0 miSSE (160°)4.6 mphClear
3:53 PM84.9 °F30.9 °F14 %29.91 in10.0 miCalmClear
4:53 PM84.0 °F33.1 °F16 %29.90 in10.0 miSouth (170°)3.5 mphClear
5:53 PM80.1 °F35.1 °F20 %29.89 in10.0 miSE (130°)3.5 mphClear
6:53 PM71.1 °F36.0 °F28 %29.90 in10.0 miCalmClear
7:53 PM64.0 °F37.0 °F37 %29.91 in10.0 miCalmClear
8:53 PM61.0 °F36.0 °F39 %29.92 in10.0 miNorth (10°)3.5 mphClear
9:53 PM55.0 °F36.0 °F49 %29.93 in10.0 miCalmClear
10:53 PM54.0 °F36.0 °F51 %29.94 in10.0 miCalmClear
11:53 PM52.0 °F36.0 °F54 %29.94 in10.0 miCalmClear
Hourly data recorded from KRDD, located miles away from Redding, California







STORIES FROM OUR PARTNERS